Regional Weather Roundup
Issued by NWS

Home | Current Version | Previous Version | Graphics & Text | Print | Product List | Glossary On
Versions: 1 2 3 4 5 6 7 8 9 10 11 12 13 14 15 16 17 18 19 20 21 22 23 24 25 26 27 28 29 30 31 32 33 34 35 36 37 38 39 40 41 42 43 44 45 46 47 48 49 50
000
ASUS43 KLSX 192107
RWRMO

WEATHER SUMMARY FOR MISSOURI
NATIONAL WEATHER SERVICE SPRINGFIELD MO
400 PM CDT SAT APR 19 2014

NOTE: "FAIR" INDICATES FEW OR NO CLOUDS BELOW 12,000 FEET WITH NO
       SIGNIFICANT WEATHER AND/OR OBSTRUCTIONS TO VISIBILITY.
       CURRENT SKY AND/OR WEATHER CONDITIONS ARE NOT AVAILABLE FOR
       CHILLICOTHE AND FARMINGTON.

MOZ001>031-035>038-043-044-053-054-192200-
...NORTHERN AND WESTERN MISSOURI...

CITY           SKY/WX    TMP DP  RH WIND       PRES   REMARKS
KANSAS CTY INT PTSUNNY   77  45  32 S16G28    30.07F
KANSAS C DTWN  MOSUNNY   78  45  30 SW20G26   30.07F
LEE`S SUMMIT   MOSUNNY   75  44  33 S14G22    30.09F
ST JOSEPH      PTSUNNY   79  43  27 S18G28    30.05F
CHILLICOTHE      N/A     77  44  30 S16G23    30.11F
KIRKSVILLE     PTSUNNY   76  42  29 S15G23    30.14F

$$
MOZ066>068-077>081-088>096-101>105-192200-
...SOUTHWEST MISSOURI...

CITY           SKY/WX    TMP DP  RH WIND       PRES   REMARKS
SPRINGFIELD    MOSUNNY   74  42  31 SE16      30.14F
JOPLIN         MOSUNNY   76  44  32 S13       30.12F

$$
MOZ032>034-039>042-045>050-055>058-069>072-192200-
...CENTRAL MISSOURI...

CITY           SKY/WX    TMP DP  RH WIND       PRES   REMARKS
COLUMBIA       MOSUNNY   76  41  28 SE8       30.16F
JEFFERSON CITY MOSUNNY   76  36  23 E3        30.15F
ROLLA          MOSUNNY   75  42  30 S10       30.15F
SEDALIA        SUNNY     77  45  32 SW8       30.14F
WHITEMAN AFB   SUNNY     76  45  33 S13       30.12F
OSAGE BEACH    SUNNY     77  37  24 S9        30.15F

$$
MOZ051-052-059>065-192200-
...EAST CENTRAL MISSOURI...

CITY           SKY/WX    TMP DP  RH WIND       PRES   REMARKS
ST LOUIS INTL  CLOUDY    75  38  26 SE9       30.20F
SPIRIT OF STL  PTSUNNY   73  38  27 E8        30.18F
ST CHARLES     MOSUNNY   74  41  30 SE6       30.19F

$$
MOZ072>076-082>087-097>100-106>115-192200-
...SOUTH CENTRAL AND SOUTHEAST MISSOURI...

CITY           SKY/WX    TMP DP  RH WIND       PRES   REMARKS
CAPE GIRARDEAU SUNNY     76  40  27 VRB5      30.16F
FARMINGTON     SUNNY     75  41  29 E8        30.20F
POPLAR BLUFF   SUNNY     76  40  27 MISG      30.16F
WEST PLAINS    MOSUNNY   74  40  29 S9        30.17F

$$



USA.gov is the U.S. government's official web portal to all federal, state and local government web resources and services.